JST261 YSSY-YSCB

Flight info

Callsign JST261
Flight time 0h 34m
Altitude 26000
Route WOL H65 LEECE
Aircraft A320/M-SDE3FGHIRWY/LB1

Departure

Time 2026-05-07 22:08
Airport Sydney Kingsford Smith International Airport (YSSY)

Arrival

Time 2026-05-07 22:42
Airport Canberra Airport (YSCB)
Time Latitude Longitude Altitude Speed Heading
2026-05-07 21:30 -33.93485 151.17771 30 ft 0 kts 280°
2026-05-07 21:42 -33.93486 151.17771 30 ft 0 kts 280°
2026-05-07 21:55 -33.93488 151.17786 30 ft 4 kts 288°
2026-05-07 21:55 -33.93499 151.17815 30 ft 4 kts 287°
2026-05-07 21:55 -33.93499 151.17838 30 ft 4 kts 235°
2026-05-07 21:56 -33.93483 151.17848 30 ft 1 kts 189°
2026-05-07 21:56 -33.93493 151.17845 30 ft 4 kts 189°
2026-05-07 21:56 -33.93520 151.17840 30 ft 4 kts 189°
2026-05-07 21:56 -33.93547 151.17834 30 ft 4 kts 189°
2026-05-07 21:57 -33.93573 151.17828 30 ft 4 kts 189°
2026-05-07 21:57 -33.93600 151.17823 30 ft 4 kts 189°
2026-05-07 21:57 -33.93607 151.17821 30 ft 0 kts 189°
2026-05-07 21:59 -33.93629 151.17816 30 ft 6 kts 192°
2026-05-07 22:00 -33.93682 151.17800 30 ft 9 kts 194°
2026-05-07 22:00 -33.93756 151.17778 30 ft 13 kts 193°
2026-05-07 22:00 -33.93835 151.17762 30 ft 11 kts 173°
2026-05-07 22:00 -33.93912 151.17782 29 ft 12 kts 168°
2026-05-07 22:01 -33.94005 151.17806 29 ft 15 kts 167°
2026-05-07 22:01 -33.94118 151.17836 29 ft 16 kts 169°
2026-05-07 22:01 -33.94219 151.17861 30 ft 15 kts 167°
2026-05-07 22:01 -33.94309 151.17855 30 ft 14 kts 225°
2026-05-07 22:02 -33.94349 151.17760 30 ft 12 kts 219°
2026-05-07 22:02 -33.94436 151.17767 30 ft 14 kts 166°
2026-05-07 22:02 -33.94543 151.17798 30 ft 17 kts 167°
2026-05-07 22:02 -33.94633 151.17822 30 ft 14 kts 168°
2026-05-07 22:03 -33.94739 151.17850 30 ft 17 kts 167°
2026-05-07 22:03 -33.94863 151.17881 30 ft 20 kts 168°
2026-05-07 22:03 -33.94995 151.17915 30 ft 17 kts 168°
2026-05-07 22:03 -33.95105 151.17943 30 ft 15 kts 168°
2026-05-07 22:04 -33.95204 151.17917 30 ft 17 kts 237°
2026-05-07 22:04 -33.95217 151.17864 30 ft 4 kts 258°
2026-05-07 22:04 -33.95226 151.17812 30 ft 9 kts 257°
2026-05-07 22:04 -33.95244 151.17718 29 ft 14 kts 258°
2026-05-07 22:05 -33.95287 151.17604 29 ft 17 kts 217°
2026-05-07 22:05 -33.95407 151.17596 30 ft 17 kts 169°
2026-05-07 22:05 -33.95517 151.17626 30 ft 17 kts 167°
2026-05-07 22:05 -33.95645 151.17658 30 ft 20 kts 168°
2026-05-07 22:06 -33.95791 151.17696 30 ft 23 kts 168°
2026-05-07 22:06 -33.95957 151.17740 30 ft 26 kts 167°
2026-05-07 22:06 -33.96103 151.17777 30 ft 20 kts 168°
2026-05-07 22:06 -33.96241 151.17813 30 ft 20 kts 168°
2026-05-07 22:07 -33.96374 151.17847 30 ft 17 kts 169°
2026-05-07 22:07 -33.96434 151.17948 30 ft 17 kts 79°
2026-05-07 22:07 -33.96382 151.18050 30 ft 15 kts 10°
2026-05-07 22:07 -33.96263 151.18022 29 ft 27 kts 347°
2026-05-07 22:08 -33.95821 151.17906 29 ft 99 kts 348°
2026-05-07 22:08 -33.94965 151.17679 49 ft 148 kts 346°
2026-05-07 22:08 -33.93949 151.17419 685 ft 150 kts 344°
2026-05-07 22:08 -33.92943 151.17092 1415 ft 148 kts 327°
2026-05-07 22:09 -33.92039 151.16511 2017 ft 152 kts 313°
2026-05-07 22:09 -33.91213 151.15624 2374 ft 167 kts 302°
2026-05-07 22:09 -33.90527 151.14409 2712 ft 186 kts 289°
2026-05-07 22:09 -33.89930 151.12921 3163 ft 210 kts 290°
2026-05-07 22:10 -33.89254 151.11247 3656 ft 234 kts 291°
2026-05-07 22:10 -33.88503 151.09405 4296 ft 254 kts 291°
2026-05-07 22:10 -33.87700 151.07470 5221 ft 262 kts 291°
2026-05-07 22:10 -33.86875 151.05497 6201 ft 266 kts 291°
2026-05-07 22:11 -33.86040 151.03496 7173 ft 270 kts 291°
2026-05-07 22:11 -33.85195 151.01463 8131 ft 273 kts 290°
2026-05-07 22:11 -33.84630 150.99315 9107 ft 268 kts 272°
2026-05-07 22:11 -33.84657 150.97135 10095 ft 262 kts 255°
2026-05-07 22:12 -33.85297 150.95096 10875 ft 267 kts 238°
2026-05-07 22:12 -33.86559 150.93361 11179 ft 289 kts 218°
2026-05-07 22:12 -33.88434 150.92281 11609 ft 311 kts 197°
2026-05-07 22:12 -33.90639 150.92199 12325 ft 328 kts 175°
2026-05-07 22:13 -33.92812 150.93247 13107 ft 346 kts 157°
2026-05-07 22:13 -33.94887 150.94750 13891 ft 350 kts 156°
2026-05-07 22:13 -33.97029 150.96112 14553 ft 345 kts 167°
2026-05-07 22:13 -33.99323 150.96785 15199 ft 336 kts 182°
2026-05-07 22:14 -34.01627 150.96686 15848 ft 329 kts 196°
2026-05-07 22:14 -34.03839 150.96005 16499 ft 329 kts 201°
2026-05-07 22:14 -34.06061 150.95269 17178 ft 332 kts 201°
2026-05-07 22:14 -34.08299 150.94536 17913 ft 334 kts 201°
2026-05-07 22:15 -34.10557 150.93805 18586 ft 337 kts 201°
2026-05-07 22:15 -34.12834 150.93071 19195 ft 340 kts 201°
2026-05-07 22:15 -34.15100 150.92341 19796 ft 342 kts 201°
2026-05-07 22:15 -34.17411 150.91596 20410 ft 345 kts 201°
2026-05-07 22:16 -34.19743 150.90841 21003 ft 348 kts 201°
2026-05-07 22:16 -34.22092 150.90079 21582 ft 351 kts 201°
2026-05-07 22:16 -34.24455 150.89313 22138 ft 353 kts 201°
2026-05-07 22:16 -34.26845 150.88538 22672 ft 356 kts 201°
2026-05-07 22:17 -34.29249 150.87756 23292 ft 358 kts 200°
2026-05-07 22:17 -34.31658 150.86974 23845 ft 360 kts 200°
2026-05-07 22:17 -34.34083 150.86188 24330 ft 362 kts 200°
2026-05-07 22:17 -34.36520 150.85396 24784 ft 364 kts 200°
2026-05-07 22:18 -34.38978 150.84595 25217 ft 367 kts 200°
2026-05-07 22:18 -34.43957 150.82971 26006 ft 373 kts 200°
2026-05-07 22:18 -34.46468 150.82146 26100 ft 377 kts 200°
2026-05-07 22:19 -34.49011 150.81313 26142 ft 380 kts 200°
2026-05-07 22:19 -34.51559 150.80481 26107 ft 377 kts 201°
2026-05-07 22:19 -34.53983 150.79344 26109 ft 371 kts 211°
2026-05-07 22:19 -34.56134 150.77652 26110 ft 367 kts 221°
2026-05-07 22:20 -34.57949 150.75488 26100 ft 366 kts 230°
2026-05-07 22:20 -34.59474 150.73008 26102 ft 368 kts 233°
2026-05-07 22:20 -34.60991 150.70491 26115 ft 370 kts 233°
2026-05-07 22:20 -34.62517 150.67966 26114 ft 371 kts 233°
2026-05-07 22:21 -34.64021 150.65475 26108 ft 371 kts 233°
2026-05-07 22:21 -34.65544 150.62947 26124 ft 371 kts 233°
2026-05-07 22:21 -34.67066 150.60420 26125 ft 371 kts 233°
2026-05-07 22:21 -34.68589 150.57893 26123 ft 370 kts 233°
2026-05-07 22:22 -34.70130 150.55331 26115 ft 371 kts 233°
2026-05-07 22:22 -34.71628 150.52831 26115 ft 371 kts 233°
2026-05-07 22:22 -34.73143 150.50297 26134 ft 371 kts 233°
2026-05-07 22:22 -34.74661 150.47766 26133 ft 371 kts 233°
2026-05-07 22:23 -34.76178 150.45234 26123 ft 370 kts 233°
2026-05-07 22:23 -34.77695 150.42699 26126 ft 370 kts 233°
2026-05-07 22:23 -34.79209 150.40168 26149 ft 371 kts 233°
2026-05-07 22:23 -34.80728 150.37630 26151 ft 370 kts 233°
2026-05-07 22:24 -34.82245 150.35092 26179 ft 370 kts 233°
2026-05-07 22:24 -34.83754 150.32562 26177 ft 369 kts 233°
2026-05-07 22:24 -34.85262 150.30031 26175 ft 368 kts 233°
2026-05-07 22:24 -34.86760 150.27513 26191 ft 367 kts 233°
2026-05-07 22:25 -34.88259 150.24989 26182 ft 367 kts 233°
2026-05-07 22:25 -34.89752 150.22475 26180 ft 366 kts 233°
2026-05-07 22:25 -34.91242 150.19966 26178 ft 366 kts 233°
2026-05-07 22:25 -34.92735 150.17452 26176 ft 366 kts 233°
2026-05-07 22:26 -34.94225 150.14943 26157 ft 366 kts 233°
2026-05-07 22:26 -34.95700 150.12463 26157 ft 366 kts 233°
2026-05-07 22:26 -34.97191 150.09952 26195 ft 366 kts 232°
2026-05-07 22:26 -34.98683 150.07439 26195 ft 366 kts 232°
2026-05-07 22:27 -35.00169 150.04932 26070 ft 362 kts 232°
2026-05-07 22:27 -35.01636 150.02454 25824 ft 358 kts 232°
2026-05-07 22:27 -35.03089 150.00000 25575 ft 356 kts 232°
2026-05-07 22:27 -35.04522 149.97574 25199 ft 349 kts 232°
2026-05-07 22:28 -35.06010 149.95272 24645 ft 343 kts 226°
2026-05-07 22:28 -35.07641 149.93164 24055 ft 341 kts 226°
2026-05-07 22:28 -35.09266 149.91071 23408 ft 338 kts 226°
2026-05-07 22:28 -35.10876 149.88996 22808 ft 335 kts 226°
2026-05-07 22:29 -35.12469 149.86947 22254 ft 330 kts 225°
2026-05-07 22:29 -35.14039 149.84925 21729 ft 326 kts 225°
2026-05-07 22:29 -35.15592 149.82924 21214 ft 323 kts 225°
2026-05-07 22:29 -35.17127 149.80942 20741 ft 319 kts 226°
2026-05-07 22:30 -35.18646 149.78979 20224 ft 316 kts 226°
2026-05-07 22:30 -35.20152 149.77032 19719 ft 313 kts 226°
2026-05-07 22:30 -35.21639 149.75106 19217 ft 310 kts 226°
2026-05-07 22:30 -35.23113 149.73192 18720 ft 307 kts 226°
2026-05-07 22:31 -35.24573 149.71292 18186 ft 306 kts 226°
2026-05-07 22:31 -35.26026 149.69405 17637 ft 304 kts 226°
2026-05-07 22:31 -35.27469 149.67535 17106 ft 301 kts 226°
2026-05-07 22:31 -35.28903 149.65680 16603 ft 299 kts 226°
2026-05-07 22:32 -35.30327 149.63834 16053 ft 298 kts 226°
2026-05-07 22:32 -35.31744 149.61991 15524 ft 297 kts 226°
2026-05-07 22:32 -35.33158 149.60153 14971 ft 297 kts 226°
2026-05-07 22:32 -35.34574 149.58317 14444 ft 295 kts 226°
2026-05-07 22:33 -35.35981 149.56498 13896 ft 293 kts 226°
2026-05-07 22:33 -35.37373 149.54688 13322 ft 290 kts 226°
2026-05-07 22:33 -35.38753 149.52889 12776 ft 288 kts 226°
2026-05-07 22:33 -35.40121 149.51096 12237 ft 288 kts 226°
2026-05-07 22:34 -35.41488 149.49303 11705 ft 287 kts 226°
2026-05-07 22:34 -35.42852 149.47513 11179 ft 287 kts 226°
2026-05-07 22:34 -35.44199 149.45753 10782 ft 284 kts 226°
2026-05-07 22:34 -35.45518 149.44032 10674 ft 271 kts 226°
2026-05-07 22:35 -35.46786 149.42381 10551 ft 259 kts 226°
2026-05-07 22:35 -35.47996 149.40807 10414 ft 249 kts 225°
2026-05-07 22:35 -35.49166 149.39284 10249 ft 241 kts 225°
2026-05-07 22:35 -35.50312 149.37784 10159 ft 242 kts 226°
2026-05-07 22:36 -35.51460 149.36277 10055 ft 242 kts 226°
2026-05-07 22:36 -35.52610 149.34765 9747 ft 245 kts 226°
2026-05-07 22:36 -35.53782 149.33226 9333 ft 245 kts 226°
2026-05-07 22:36 -35.54827 149.31586 8999 ft 244 kts 237°
2026-05-07 22:37 -35.55451 149.29604 8349 ft 258 kts 253°
2026-05-07 22:37 -35.55724 149.27380 7688 ft 267 kts 257°
2026-05-07 22:37 -35.55972 149.25148 7421 ft 260 kts 257°
2026-05-07 22:37 -35.56070 149.22965 7263 ft 257 kts 272°
2026-05-07 22:38 -35.55301 149.20962 7096 ft 270 kts 302°
2026-05-07 22:38 -35.53682 149.19618 6559 ft 297 kts 333°
2026-05-07 22:38 -35.51578 149.19283 6078 ft 314 kts 357°
2026-05-07 22:38 -35.49393 149.19434 5597 ft 314 kts 357°
2026-05-07 22:39 -35.47287 149.19493 5351 ft 291 kts 355°
2026-05-07 22:39 -35.45305 149.19466 4754 ft 284 kts 354°
2026-05-07 22:39 -35.43376 149.19447 4341 ft 271 kts 356°
2026-05-07 22:39 -35.41500 149.19445 3965 ft 265 kts 357°
2026-05-07 22:40 -35.39735 149.19447 3593 ft 244 kts 358°
2026-05-07 22:40 -35.38103 149.19448 3218 ft 225 kts 358°
2026-05-07 22:40 -35.36608 149.19448 2944 ft 203 kts 356°
2026-05-07 22:40 -35.35278 149.19449 2652 ft 181 kts 357°
2026-05-07 22:41 -35.34096 149.19448 2413 ft 159 kts 357°
2026-05-07 22:41 -35.33072 149.19448 2226 ft 137 kts 357°
2026-05-07 22:41 -35.32150 149.19445 2048 ft 128 kts 356°
2026-05-07 22:41 -35.31271 149.19449 1910 ft 125 kts 356°
2026-05-07 22:42 -35.30469 149.19443 1880 ft 95 kts 360°
2026-05-07 22:42 -35.29946 149.19442 1877 ft 55 kts 360°
2026-05-07 22:42 -35.29672 149.19443 1880 ft 26 kts 359°
2026-05-07 22:42 -35.29581 149.19367 1879 ft 11 kts 274°
2026-05-07 22:43 -35.29580 149.19304 1880 ft 9 kts 271°
2026-05-07 22:43 -35.29602 149.19240 1877 ft 9 kts 197°
2026-05-07 22:43 -35.29678 149.19242 1880 ft 12 kts 178°
2026-05-07 22:43 -35.29774 149.19242 1877 ft 15 kts 180°
2026-05-07 22:44 -35.29888 149.19242 1877 ft 18 kts 180°
2026-05-07 22:44 -35.30021 149.19242 1880 ft 20 kts 180°
2026-05-07 22:44 -35.30168 149.19242 1878 ft 22 kts 181°
2026-05-07 22:44 -35.30298 149.19238 1880 ft 9 kts 180°
2026-05-07 22:45 -35.30375 149.19238 1880 ft 12 kts 180°
2026-05-07 22:45 -35.30471 149.19238 1880 ft 15 kts 180°
2026-05-07 22:45 -35.30586 149.19238 1880 ft 18 kts 180°
2026-05-07 22:45 -35.30695 149.19238 1880 ft 14 kts 179°
2026-05-07 22:46 -35.30747 149.19226 1880 ft 3 kts 252°
2026-05-07 22:46 -35.30747 149.19197 1880 ft 6 kts 264°
2026-05-07 22:46 -35.30756 149.19140 1880 ft 1 kts 258°
2026-05-07 22:46 -35.30757 149.19138 1880 ft 0 kts 258°